Year,Month,Day,Hour,Minute,Value (Times are PST for temperature in C)
2021,01,31,00,00,5.00
2021,01,31,00,01,5.00
2021,01,31,00,03,5.00
2021,01,31,00,04,5.00
2021,01,31,00,05,5.00
2021,01,31,00,07,5.00
2021,01,31,00,08,5.00
2021,01,31,00,09,5.00
2021,01,31,00,11,5.00
2021,01,31,00,12,5.00
2021,01,31,00,13,5.00
2021,01,31,00,14,5.00
2021,01,31,00,15,5.00
2021,01,31,00,16,5.00
2021,01,31,00,17,5.00
2021,01,31,00,19,5.00
2021,01,31,00,20,5.00
2021,01,31,00,21,5.00
2021,01,31,00,22,5.10
2021,01,31,00,23,5.10
2021,01,31,00,24,5.10
2021,01,31,00,26,5.10
2021,01,31,00,27,5.10
2021,01,31,00,28,5.10
2021,01,31,00,29,5.10
2021,01,31,00,30,5.10
2021,01,31,00,31,5.10
2021,01,31,00,32,5.10
2021,01,31,00,33,5.10
2021,01,31,00,34,5.10
2021,01,31,00,36,5.10
2021,01,31,00,37,5.10
2021,01,31,00,38,5.10
2021,01,31,00,40,5.10
2021,01,31,00,41,5.10
2021,01,31,00,42,5.10
2021,01,31,00,43,5.10
2021,01,31,00,44,5.10
2021,01,31,00,45,5.10
2021,01,31,00,46,5.10
2021,01,31,00,47,5.10
2021,01,31,00,48,5.10
2021,01,31,00,49,5.10
2021,01,31,00,50,5.10
2021,01,31,00,51,5.10
2021,01,31,00,52,5.10
2021,01,31,00,53,5.10
2021,01,31,00,54,5.10
2021,01,31,00,55,5.10
2021,01,31,00,56,5.10
2021,01,31,00,57,5.10
2021,01,31,00,59,5.10
2021,01,31,01,00,5.10
2021,01,31,01,01,5.10
2021,01,31,01,02,5.10
2021,01,31,01,04,5.10
2021,01,31,01,05,5.10
2021,01,31,01,06,5.10
2021,01,31,01,07,5.10
2021,01,31,01,08,5.10
2021,01,31,01,09,5.10
2021,01,31,01,10,5.10
2021,01,31,01,11,5.10
2021,01,31,01,12,5.10
2021,01,31,01,13,5.10
2021,01,31,01,14,5.10
2021,01,31,01,15,5.10
2021,01,31,01,16,5.10
2021,01,31,01,17,5.10
2021,01,31,01,18,5.10
2021,01,31,01,19,5.10
2021,01,31,01,20,5.10
2021,01,31,01,21,5.10
2021,01,31,01,22,5.10
2021,01,31,01,23,5.10
2021,01,31,01,24,5.20
2021,01,31,01,25,5.20
2021,01,31,01,26,5.20
2021,01,31,01,27,5.20
2021,01,31,01,28,5.20
2021,01,31,01,29,5.20
2021,01,31,01,30,5.20
2021,01,31,01,31,5.20
2021,01,31,01,32,5.20
2021,01,31,01,33,5.20
2021,01,31,01,34,5.20
2021,01,31,01,35,5.20
2021,01,31,01,36,5.20
2021,01,31,01,37,5.20
2021,01,31,01,38,5.20
2021,01,31,01,39,5.20
2021,01,31,01,40,5.20
2021,01,31,01,41,5.20
2021,01,31,01,42,5.20
2021,01,31,01,43,5.20
2021,01,31,01,44,5.20
2021,01,31,01,45,5.20
2021,01,31,01,46,5.20
2021,01,31,01,47,5.20
2021,01,31,01,48,5.20
2021,01,31,01,49,5.20
2021,01,31,01,50,5.20
2021,01,31,01,51,5.20
2021,01,31,01,52,5.20
2021,01,31,01,53,5.20
2021,01,31,01,54,5.20
2021,01,31,01,55,5.20
2021,01,31,01,56,5.20
2021,01,31,01,57,5.20
2021,01,31,01,58,5.20
2021,01,31,01,59,5.20
2021,01,31,02,00,5.20
2021,01,31,02,01,5.20
2021,01,31,02,02,5.20
2021,01,31,02,03,5.20
2021,01,31,02,04,5.20
2021,01,31,02,05,5.20
2021,01,31,02,06,5.20
2021,01,31,02,07,5.20
2021,01,31,02,08,5.20
2021,01,31,02,09,5.20
2021,01,31,02,10,5.20
2021,01,31,02,11,5.20
2021,01,31,02,12,5.20
2021,01,31,02,13,5.20
2021,01,31,02,14,5.20
2021,01,31,02,15,5.20
2021,01,31,02,16,5.20
2021,01,31,02,17,5.20
2021,01,31,02,18,5.20
2021,01,31,02,19,5.20
2021,01,31,02,20,5.20
2021,01,31,02,21,5.20
2021,01,31,02,22,5.20
2021,01,31,02,23,5.20
2021,01,31,02,24,5.20
2021,01,31,02,25,5.20
2021,01,31,02,26,5.20
2021,01,31,02,27,5.20
2021,01,31,02,28,5.20
2021,01,31,02,29,5.20
2021,01,31,02,30,5.20
2021,01,31,02,31,5.20
2021,01,31,02,32,5.20
2021,01,31,02,33,5.20
2021,01,31,02,34,5.20
2021,01,31,02,35,5.20
2021,01,31,02,36,5.20
2021,01,31,02,37,5.20
2021,01,31,02,38,5.20
2021,01,31,02,39,5.20
2021,01,31,02,40,5.20
2021,01,31,02,41,5.20
2021,01,31,02,42,5.20
2021,01,31,02,43,5.20
2021,01,31,02,44,5.20
2021,01,31,02,45,5.20
2021,01,31,02,46,5.20
2021,01,31,02,47,5.20
2021,01,31,02,48,5.20
2021,01,31,02,49,5.20
2021,01,31,02,50,5.20
2021,01,31,02,51,5.20
2021,01,31,02,52,5.20
2021,01,31,02,53,5.20
2021,01,31,02,54,5.30
2021,01,31,02,55,5.20
2021,01,31,02,56,5.30
2021,01,31,02,57,5.30
2021,01,31,02,58,5.30
2021,01,31,02,59,5.30
2021,01,31,03,00,5.30
2021,01,31,03,01,5.30
2021,01,31,03,02,5.30
2021,01,31,03,03,5.30
2021,01,31,03,04,5.30
2021,01,31,03,05,5.30
2021,01,31,03,06,5.40
2021,01,31,03,07,5.40
2021,01,31,03,08,5.40
2021,01,31,03,09,5.40
2021,01,31,03,10,5.40
2021,01,31,03,11,5.40
2021,01,31,03,12,5.40
2021,01,31,03,13,5.40
2021,01,31,03,14,5.40
2021,01,31,03,15,5.40
2021,01,31,03,16,5.40
2021,01,31,03,17,5.40
2021,01,31,03,18,5.40
2021,01,31,03,19,5.40
2021,01,31,03,20,5.40
2021,01,31,03,21,5.40
2021,01,31,03,22,5.40
2021,01,31,03,23,5.40
2021,01,31,03,24,5.40
2021,01,31,03,25,5.40
2021,01,31,03,26,5.40
2021,01,31,03,27,5.40
2021,01,31,03,28,5.40
2021,01,31,03,29,5.40
2021,01,31,03,30,5.40
2021,01,31,03,32,5.40
2021,01,31,03,33,5.40
2021,01,31,03,34,5.40
2021,01,31,03,35,5.30
2021,01,31,03,36,5.40
2021,01,31,03,37,5.30
2021,01,31,03,38,5.40
2021,01,31,03,39,5.30
2021,01,31,03,40,5.30
2021,01,31,03,41,5.30
2021,01,31,03,42,5.30
2021,01,31,03,43,5.30
2021,01,31,03,44,5.30
2021,01,31,03,45,5.30
2021,01,31,03,46,5.30
2021,01,31,03,47,5.30
2021,01,31,03,48,5.40
2021,01,31,03,49,5.30
2021,01,31,03,50,5.30
2021,01,31,03,51,5.30
2021,01,31,03,52,5.30
2021,01,31,03,53,5.40
2021,01,31,03,54,5.40
2021,01,31,03,55,5.40
2021,01,31,03,56,5.40
2021,01,31,03,57,5.40
2021,01,31,03,58,5.40
2021,01,31,03,59,5.40
2021,01,31,04,00,5.40
2021,01,31,04,01,5.40
2021,01,31,04,02,5.40
2021,01,31,04,03,5.40
2021,01,31,04,04,5.30
2021,01,31,04,05,5.30
2021,01,31,04,06,5.30
2021,01,31,04,07,5.30
2021,01,31,04,08,5.30
2021,01,31,04,09,5.30
2021,01,31,04,10,5.20
2021,01,31,04,11,5.20
2021,01,31,04,12,5.20
2021,01,31,04,14,5.20
2021,01,31,04,15,5.20
2021,01,31,04,16,5.20
2021,01,31,04,17,5.10
2021,01,31,04,18,5.10
2021,01,31,04,19,5.10
2021,01,31,04,21,5.00
2021,01,31,04,22,4.90
2021,01,31,04,23,4.90
2021,01,31,04,24,4.90
2021,01,31,04,25,4.90
2021,01,31,04,26,4.80
2021,01,31,04,27,4.80
2021,01,31,04,29,4.80
2021,01,31,04,30,4.80
2021,01,31,04,31,4.70
2021,01,31,04,32,4.70
2021,01,31,04,34,4.70
2021,01,31,04,35,4.70
2021,01,31,04,37,4.70
2021,01,31,04,38,4.70
2021,01,31,04,39,4.70
2021,01,31,04,41,4.60
2021,01,31,04,42,4.60
2021,01,31,04,44,4.60
2021,01,31,04,45,4.60
2021,01,31,04,46,4.60
2021,01,31,04,47,4.60
2021,01,31,04,48,4.60
2021,01,31,04,49,4.60
2021,01,31,04,50,4.60
2021,01,31,04,51,4.60
2021,01,31,04,52,4.60
2021,01,31,04,53,4.50
2021,01,31,04,54,4.50
2021,01,31,04,55,4.50
2021,01,31,04,56,4.50
2021,01,31,04,57,4.50
2021,01,31,04,58,4.50
2021,01,31,04,59,4.50
2021,01,31,05,00,4.50
2021,01,31,05,01,4.50
2021,01,31,05,02,4.50
2021,01,31,05,03,4.50
2021,01,31,05,04,4.50
2021,01,31,05,05,4.50
2021,01,31,05,06,4.50
2021,01,31,05,07,4.40
2021,01,31,05,08,4.40
2021,01,31,05,09,4.40
2021,01,31,05,10,4.40
2021,01,31,05,11,4.40
2021,01,31,05,12,4.40
2021,01,31,05,13,4.40
2021,01,31,05,14,4.40
2021,01,31,05,15,4.40
2021,01,31,05,16,4.40
2021,01,31,05,17,4.40
2021,01,31,05,18,4.40
2021,01,31,05,19,4.40
2021,01,31,05,20,4.40
2021,01,31,05,21,4.30
2021,01,31,05,22,4.30
2021,01,31,05,23,4.30
2021,01,31,05,24,4.30
2021,01,31,05,25,4.30
2021,01,31,05,26,4.30
2021,01,31,05,27,4.30
2021,01,31,05,28,4.30
2021,01,31,05,29,4.30
2021,01,31,05,30,4.30
2021,01,31,05,31,4.30
2021,01,31,05,32,4.30
2021,01,31,05,33,4.30
2021,01,31,05,34,4.30
2021,01,31,05,35,4.30
2021,01,31,05,36,4.30
2021,01,31,05,37,4.30
2021,01,31,05,38,4.30
2021,01,31,05,39,4.30
2021,01,31,05,40,4.30
2021,01,31,05,41,4.30
2021,01,31,05,42,4.30
2021,01,31,05,43,4.20
2021,01,31,05,44,4.20
2021,01,31,05,45,4.20
2021,01,31,05,46,4.20
2021,01,31,05,47,4.20
2021,01,31,05,48,4.20
2021,01,31,05,49,4.20
2021,01,31,05,50,4.20
2021,01,31,05,51,4.20
2021,01,31,05,52,4.20
2021,01,31,05,53,4.20
2021,01,31,05,54,4.20
2021,01,31,05,55,4.20
2021,01,31,05,56,4.20
2021,01,31,05,57,4.20
2021,01,31,05,58,4.20
2021,01,31,05,59,4.20
2021,01,31,06,00,4.20
2021,01,31,06,01,4.20
2021,01,31,06,02,4.20
2021,01,31,06,03,4.20
2021,01,31,06,04,4.20
2021,01,31,06,05,4.20
2021,01,31,06,06,4.20
2021,01,31,06,07,4.20
2021,01,31,06,08,4.20
2021,01,31,06,09,4.20
2021,01,31,06,10,4.20
2021,01,31,06,11,4.20
2021,01,31,06,12,4.20
2021,01,31,06,13,4.20
2021,01,31,06,14,4.20
2021,01,31,06,15,4.20
2021,01,31,06,16,4.20
2021,01,31,06,17,4.20
2021,01,31,06,18,4.20
2021,01,31,06,19,4.20
2021,01,31,06,20,4.20
2021,01,31,06,21,4.20
2021,01,31,06,22,4.20
2021,01,31,06,23,4.20
2021,01,31,06,24,4.20
2021,01,31,06,25,4.20
2021,01,31,06,26,4.10
2021,01,31,06,27,4.10
2021,01,31,06,28,4.10
2021,01,31,06,29,4.10
2021,01,31,06,30,4.10
2021,01,31,06,31,4.10
2021,01,31,06,32,4.10
2021,01,31,06,33,4.10
2021,01,31,06,34,4.10
2021,01,31,06,35,4.10
2021,01,31,06,36,4.10
2021,01,31,06,37,4.10
2021,01,31,06,38,4.10
2021,01,31,06,39,4.10
2021,01,31,06,40,4.10
2021,01,31,06,41,4.10
2021,01,31,06,42,4.10
2021,01,31,06,43,4.10
2021,01,31,06,44,4.10
2021,01,31,06,45,4.10
2021,01,31,06,46,4.10
2021,01,31,06,47,4.10
2021,01,31,06,48,4.00
2021,01,31,06,49,4.10
2021,01,31,06,50,4.10
2021,01,31,06,51,4.00
2021,01,31,06,52,4.00
2021,01,31,06,53,4.00
2021,01,31,06,54,4.00
2021,01,31,06,55,4.00
2021,01,31,06,56,4.00
2021,01,31,06,57,4.00
2021,01,31,06,58,4.00
2021,01,31,06,59,4.00
2021,01,31,07,00,4.00
2021,01,31,07,01,4.00
2021,01,31,07,02,4.00
2021,01,31,07,03,4.00
2021,01,31,07,04,4.00
2021,01,31,07,05,4.00
2021,01,31,07,06,4.00
2021,01,31,07,07,4.00
2021,01,31,07,08,3.90
2021,01,31,07,09,4.00
2021,01,31,07,10,3.90
2021,01,31,07,11,4.00
2021,01,31,07,12,4.00
2021,01,31,07,13,3.90
2021,01,31,07,14,3.90
2021,01,31,07,15,3.90
2021,01,31,07,16,3.90
2021,01,31,07,17,3.90
2021,01,31,07,18,3.90
2021,01,31,07,19,3.90
2021,01,31,07,20,3.90
2021,01,31,07,21,3.90
2021,01,31,07,22,3.90
2021,01,31,07,23,3.90
2021,01,31,07,24,3.90
2021,01,31,07,25,3.90
2021,01,31,07,26,3.90
2021,01,31,07,27,3.90
2021,01,31,07,28,3.90
2021,01,31,07,29,3.90
2021,01,31,07,30,3.90
2021,01,31,07,31,3.90
2021,01,31,07,32,3.90
2021,01,31,07,33,3.90
2021,01,31,07,34,3.90
2021,01,31,07,35,3.90
2021,01,31,07,36,3.90
2021,01,31,07,37,3.90
2021,01,31,07,38,3.90
2021,01,31,07,39,3.90
2021,01,31,07,40,3.90
2021,01,31,07,41,3.90
2021,01,31,07,42,3.90
2021,01,31,07,43,3.90
2021,01,31,07,44,3.80
2021,01,31,07,45,3.80
2021,01,31,07,46,3.80
2021,01,31,07,47,3.80
2021,01,31,07,48,3.80
2021,01,31,07,49,3.80
2021,01,31,07,50,3.80
2021,01,31,07,51,3.80
2021,01,31,07,52,3.80
2021,01,31,07,53,3.80
2021,01,31,07,54,3.80
2021,01,31,07,55,3.80
2021,01,31,07,56,3.80
2021,01,31,07,57,3.80
2021,01,31,07,58,3.80
2021,01,31,07,59,3.80
2021,01,31,08,00,3.80
2021,01,31,08,01,3.80
2021,01,31,08,02,3.80
2021,01,31,08,03,3.80
2021,01,31,08,04,3.80
2021,01,31,08,05,3.80
2021,01,31,08,06,3.80
2021,01,31,08,07,3.80
2021,01,31,08,08,3.80
2021,01,31,08,09,3.80
2021,01,31,08,10,3.80
2021,01,31,08,11,3.80
2021,01,31,08,12,3.80
2021,01,31,08,13,3.80
2021,01,31,08,14,3.90
2021,01,31,08,15,3.90
2021,01,31,08,16,3.90
2021,01,31,08,17,3.90
2021,01,31,08,18,3.90
2021,01,31,08,19,3.90
2021,01,31,08,20,3.90
2021,01,31,08,21,3.90
2021,01,31,08,22,3.90
2021,01,31,08,23,3.90
2021,01,31,08,24,3.90
2021,01,31,08,25,3.90
2021,01,31,08,26,3.90
2021,01,31,08,27,3.90
2021,01,31,08,28,3.90
2021,01,31,08,29,3.90
2021,01,31,08,30,3.90
2021,01,31,08,31,3.90
2021,01,31,08,32,3.90
2021,01,31,08,33,3.90
2021,01,31,08,34,3.90
2021,01,31,08,35,3.90
2021,01,31,08,36,3.90
2021,01,31,08,37,3.90
2021,01,31,08,38,3.90
2021,01,31,08,39,3.90
2021,01,31,08,40,3.90
2021,01,31,08,41,3.90
2021,01,31,08,42,3.90
2021,01,31,08,43,3.90
2021,01,31,08,44,3.90
2021,01,31,08,45,3.90
2021,01,31,08,46,3.90
2021,01,31,08,47,3.90
2021,01,31,08,48,3.90
2021,01,31,08,49,3.90
2021,01,31,08,50,3.90
2021,01,31,08,51,3.90
2021,01,31,08,52,4.00
2021,01,31,08,53,3.90
2021,01,31,08,54,4.00
2021,01,31,08,55,4.00
2021,01,31,08,56,4.00
2021,01,31,08,57,4.00
2021,01,31,08,58,4.00
2021,01,31,08,59,4.00
2021,01,31,09,00,4.00
2021,01,31,09,01,4.00
2021,01,31,09,02,4.00
2021,01,31,09,03,4.00
2021,01,31,09,04,4.10
2021,01,31,09,05,4.10
2021,01,31,09,06,4.10
2021,01,31,09,07,4.10
2021,01,31,09,08,4.10
2021,01,31,09,09,4.10
2021,01,31,09,10,4.10
2021,01,31,09,11,4.10
2021,01,31,09,12,4.10
2021,01,31,09,13,4.10
2021,01,31,09,14,4.10
2021,01,31,09,15,4.10
2021,01,31,09,16,4.10
2021,01,31,09,17,4.10
2021,01,31,09,18,4.10
2021,01,31,09,19,4.10
2021,01,31,09,20,4.00
2021,01,31,09,21,4.00
2021,01,31,09,22,4.00
2021,01,31,09,23,4.00
2021,01,31,09,24,4.00
2021,01,31,09,25,4.00
2021,01,31,09,26,4.00
2021,01,31,09,27,4.00
2021,01,31,09,28,4.00
2021,01,31,09,29,3.90
2021,01,31,09,30,3.90
2021,01,31,09,31,3.90
2021,01,31,09,32,3.90
2021,01,31,09,33,3.90
2021,01,31,09,34,3.80
2021,01,31,09,35,3.80
2021,01,31,09,36,3.80
2021,01,31,09,37,3.80
2021,01,31,09,38,3.70
2021,01,31,09,39,3.70
2021,01,31,09,40,3.70
2021,01,31,09,41,3.70
2021,01,31,09,42,3.70
2021,01,31,09,43,3.70
2021,01,31,09,44,3.70
2021,01,31,09,45,3.70
2021,01,31,09,46,3.70
2021,01,31,09,47,3.70
2021,01,31,09,48,3.70
2021,01,31,09,49,3.70
2021,01,31,09,50,3.70
2021,01,31,09,51,3.70
2021,01,31,09,52,3.70
2021,01,31,09,53,3.70
2021,01,31,09,54,3.70
2021,01,31,09,55,3.70
2021,01,31,09,56,3.70
2021,01,31,09,57,3.70
2021,01,31,09,58,3.70
2021,01,31,09,59,3.70
2021,01,31,10,00,3.70
2021,01,31,10,01,3.70
2021,01,31,10,02,3.70
2021,01,31,10,03,3.70
2021,01,31,10,04,3.70
2021,01,31,10,05,3.70
2021,01,31,10,06,3.70
2021,01,31,10,07,3.70
2021,01,31,10,08,3.70
2021,01,31,10,09,3.70
2021,01,31,10,10,3.70
2021,01,31,10,11,3.70
2021,01,31,10,12,3.70
2021,01,31,10,13,3.70
2021,01,31,10,14,3.60
2021,01,31,10,15,3.70
2021,01,31,10,16,3.70
2021,01,31,10,17,3.70
2021,01,31,10,18,3.70
2021,01,31,10,19,3.70
2021,01,31,10,20,3.70
2021,01,31,10,21,3.70
2021,01,31,10,22,3.70
2021,01,31,10,23,3.70
2021,01,31,10,24,3.60
2021,01,31,10,25,3.70
2021,01,31,10,26,3.70
2021,01,31,10,27,3.60
2021,01,31,10,28,3.60
2021,01,31,10,29,3.60
2021,01,31,10,30,3.70
2021,01,31,10,31,3.70
2021,01,31,10,32,3.60
2021,01,31,10,33,3.70
2021,01,31,10,34,3.60
2021,01,31,10,35,3.70
2021,01,31,10,36,3.70
2021,01,31,10,37,3.70
2021,01,31,10,38,3.70
2021,01,31,10,39,3.70
2021,01,31,10,40,3.70
2021,01,31,10,41,3.70
2021,01,31,10,42,3.70
2021,01,31,10,43,3.70
2021,01,31,10,44,3.70
2021,01,31,10,45,3.70
2021,01,31,10,46,3.70
2021,01,31,10,47,3.70
2021,01,31,10,48,3.70
2021,01,31,10,49,3.70
2021,01,31,10,50,3.80
2021,01,31,10,51,3.80
2021,01,31,10,52,3.80
2021,01,31,10,53,3.80
2021,01,31,10,54,3.80
2021,01,31,10,55,3.80
2021,01,31,10,56,3.80
2021,01,31,10,57,3.90
2021,01,31,10,58,3.90
2021,01,31,10,59,3.90
2021,01,31,11,00,3.90
2021,01,31,11,01,3.90
2021,01,31,11,02,3.90
2021,01,31,11,03,3.90
2021,01,31,11,04,3.90
2021,01,31,11,05,3.90
2021,01,31,11,06,4.00
2021,01,31,11,07,4.00
2021,01,31,11,08,4.00
2021,01,31,11,09,4.00
2021,01,31,11,10,4.00
2021,01,31,11,11,4.10
2021,01,31,11,12,4.10
2021,01,31,11,13,4.10
2021,01,31,11,14,4.10
2021,01,31,11,15,4.10
2021,01,31,11,16,4.10
2021,01,31,11,17,4.10
2021,01,31,11,18,4.10
2021,01,31,11,19,4.10
2021,01,31,11,20,4.10
2021,01,31,11,21,4.10
2021,01,31,11,22,4.10
2021,01,31,11,23,4.20
2021,01,31,11,24,4.20
2021,01,31,11,25,4.20
2021,01,31,11,26,4.20
2021,01,31,11,27,4.20
2021,01,31,11,28,4.20
2021,01,31,11,29,4.20
2021,01,31,11,30,4.20
2021,01,31,11,31,4.20
2021,01,31,11,33,4.20
2021,01,31,11,34,4.20
2021,01,31,11,35,4.20
2021,01,31,11,36,4.20
2021,01,31,11,37,4.20
2021,01,31,11,38,4.20
2021,01,31,11,39,4.20
2021,01,31,11,40,4.20
2021,01,31,11,41,4.20
2021,01,31,11,42,4.20
2021,01,31,11,43,4.20
2021,01,31,11,44,4.20
2021,01,31,11,45,4.20
2021,01,31,11,46,4.20
2021,01,31,11,47,4.20
2021,01,31,11,48,4.20
2021,01,31,11,49,4.20
2021,01,31,11,50,4.20
2021,01,31,11,51,4.10
2021,01,31,11,52,4.10
2021,01,31,11,53,4.10
2021,01,31,11,54,4.10
2021,01,31,11,55,4.10
2021,01,31,11,56,4.10
2021,01,31,11,57,4.20
2021,01,31,11,58,4.20
2021,01,31,11,59,4.20
2021,01,31,12,00,4.20
2021,01,31,12,01,4.20
2021,01,31,12,02,4.10
2021,01,31,12,03,4.10
2021,01,31,12,04,4.10
2021,01,31,12,05,4.10
2021,01,31,12,06,4.10
2021,01,31,12,07,4.10
2021,01,31,12,08,4.10
2021,01,31,12,09,4.10
2021,01,31,12,10,4.10
2021,01,31,12,11,4.20
2021,01,31,12,12,4.20
2021,01,31,12,13,4.20
2021,01,31,12,14,4.20
2021,01,31,12,15,4.20
2021,01,31,12,16,4.20
2021,01,31,12,17,4.30
2021,01,31,12,18,4.30
2021,01,31,12,19,4.30
2021,01,31,12,20,4.30
2021,01,31,12,21,4.40
2021,01,31,12,22,4.40
2021,01,31,12,23,4.40
2021,01,31,12,24,4.40
2021,01,31,12,25,4.40
2021,01,31,12,26,4.40
2021,01,31,12,27,4.40
2021,01,31,12,28,4.40
2021,01,31,12,29,4.40
2021,01,31,12,30,4.40
2021,01,31,12,34,4.40
2021,01,31,12,35,4.40
2021,01,31,12,37,4.50
2021,01,31,12,38,4.50
2021,01,31,12,39,4.50
2021,01,31,12,40,4.50
2021,01,31,12,41,4.50
2021,01,31,12,42,4.50
2021,01,31,12,43,4.50
2021,01,31,12,44,4.60
2021,01,31,12,45,4.60
2021,01,31,12,46,4.60
2021,01,31,12,47,4.60
2021,01,31,12,48,4.60
2021,01,31,12,49,4.60
2021,01,31,12,50,4.70
2021,01,31,12,51,4.70
2021,01,31,12,52,4.70
2021,01,31,12,53,4.70
2021,01,31,12,54,4.70
2021,01,31,12,55,4.70
2021,01,31,12,56,4.70
2021,01,31,12,57,4.70
2021,01,31,12,58,4.70
2021,01,31,12,59,4.70
2021,01,31,13,00,4.70
2021,01,31,13,01,4.70
2021,01,31,13,02,4.70
2021,01,31,13,03,4.70
2021,01,31,13,04,4.70
2021,01,31,13,05,4.70
2021,01,31,13,06,4.70
2021,01,31,13,07,4.70
2021,01,31,13,08,4.70
2021,01,31,13,09,4.70
2021,01,31,13,10,4.70
2021,01,31,13,11,4.70
2021,01,31,13,12,4.70
2021,01,31,13,13,4.70
2021,01,31,13,14,4.70
2021,01,31,13,15,4.70
2021,01,31,13,16,4.70
2021,01,31,13,17,4.70
2021,01,31,13,18,4.70
2021,01,31,13,19,4.80
2021,01,31,13,20,4.70
2021,01,31,13,21,4.80
2021,01,31,13,22,4.80
2021,01,31,13,23,4.80
2021,01,31,13,24,4.80
2021,01,31,13,25,4.80
2021,01,31,13,26,4.80
2021,01,31,13,27,4.80
2021,01,31,13,28,4.80
2021,01,31,13,29,4.80
2021,01,31,13,30,4.90
2021,01,31,13,31,4.90
2021,01,31,13,32,4.90
2021,01,31,13,33,4.90
2021,01,31,13,34,4.90
2021,01,31,13,35,4.90
2021,01,31,13,36,4.90
2021,01,31,13,37,4.90
2021,01,31,13,38,4.90
2021,01,31,13,39,4.90
2021,01,31,13,40,4.90
2021,01,31,13,41,4.90
2021,01,31,13,42,4.90
2021,01,31,13,43,4.90
2021,01,31,13,44,4.90
2021,01,31,13,45,4.90
2021,01,31,13,46,4.90
2021,01,31,13,47,4.90
2021,01,31,13,48,4.90
2021,01,31,13,49,4.90
2021,01,31,13,50,4.90
2021,01,31,13,51,5.00
2021,01,31,13,52,5.00
2021,01,31,13,53,5.00
2021,01,31,13,54,5.10
2021,01,31,13,55,5.10
2021,01,31,13,56,5.00
2021,01,31,13,57,5.00
2021,01,31,13,58,5.00
2021,01,31,13,59,5.10
2021,01,31,14,00,5.10
2021,01,31,14,01,5.10
2021,01,31,14,02,5.10
2021,01,31,14,04,5.10
2021,01,31,14,05,5.20
2021,01,31,14,06,5.20
2021,01,31,14,07,5.20
2021,01,31,14,09,5.20
2021,01,31,14,10,5.20
2021,01,31,14,11,5.30
2021,01,31,14,12,5.30
2021,01,31,14,13,5.30
2021,01,31,14,14,5.30
2021,01,31,14,16,5.40
2021,01,31,14,17,5.40
2021,01,31,14,19,5.40
2021,01,31,14,20,5.40
2021,01,31,14,21,5.40
2021,01,31,14,22,5.40
2021,01,31,14,23,5.40
2021,01,31,14,24,5.40
2021,01,31,14,26,5.40
2021,01,31,14,27,5.40
2021,01,31,14,28,5.50
2021,01,31,14,29,5.50
2021,01,31,14,31,5.40
2021,01,31,14,32,5.40
2021,01,31,14,33,5.40
2021,01,31,14,35,5.40
2021,01,31,14,36,5.40
2021,01,31,14,38,5.40
2021,01,31,14,39,5.40
2021,01,31,14,41,5.40
2021,01,31,14,42,5.40
2021,01,31,14,43,5.50
2021,01,31,14,45,5.50
2021,01,31,14,47,5.50
2021,01,31,14,49,5.50
2021,01,31,14,50,5.50
2021,01,31,14,51,5.50
2021,01,31,14,53,5.50
2021,01,31,14,55,5.50
2021,01,31,14,57,5.50
2021,01,31,14,59,5.40
2021,01,31,15,01,5.40
2021,01,31,15,02,5.40
2021,01,31,15,04,5.40
2021,01,31,15,06,5.40
2021,01,31,15,08,5.40
2021,01,31,15,10,5.30
2021,01,31,15,12,5.30
2021,01,31,15,14,5.20
2021,01,31,15,15,5.20
2021,01,31,15,16,5.20
2021,01,31,15,18,5.10
2021,01,31,15,20,5.10
2021,01,31,15,21,5.10
2021,01,31,15,23,5.10
2021,01,31,15,24,5.10
2021,01,31,15,26,5.10
2021,01,31,15,27,5.10
2021,01,31,15,29,5.10
2021,01,31,15,31,5.10
2021,01,31,15,33,5.10
2021,01,31,15,34,5.10
2021,01,31,15,36,5.10
2021,01,31,15,38,5.20
2021,01,31,15,39,5.20
2021,01,31,15,41,5.20
2021,01,31,15,43,5.20
2021,01,31,15,45,5.20
2021,01,31,15,47,5.20
2021,01,31,15,49,5.10
2021,01,31,15,50,5.10
2021,01,31,15,51,5.10
2021,01,31,15,52,5.10
2021,01,31,15,54,5.10
2021,01,31,15,56,5.10
2021,01,31,15,58,5.10
2021,01,31,15,59,5.10
2021,01,31,16,01,5.10
2021,01,31,16,03,5.10
2021,01,31,16,05,5.00
2021,01,31,16,07,5.00
2021,01,31,16,08,5.00
2021,01,31,16,10,4.90
2021,01,31,16,12,4.90
2021,01,31,16,13,4.90
2021,01,31,16,15,4.90
2021,01,31,16,17,4.90
2021,01,31,16,19,4.90
2021,01,31,16,20,4.90
2021,01,31,16,22,4.90
2021,01,31,16,24,4.90
2021,01,31,16,25,4.90
2021,01,31,16,27,4.90
2021,01,31,16,29,4.90
2021,01,31,16,31,4.90
2021,01,31,16,33,4.90
2021,01,31,16,34,4.90
2021,01,31,16,36,4.90
2021,01,31,16,38,4.90
2021,01,31,16,39,4.80
2021,01,31,16,41,4.80
2021,01,31,16,42,4.80
2021,01,31,16,43,4.80
2021,01,31,16,44,4.80
2021,01,31,16,45,4.80
2021,01,31,16,47,4.80
2021,01,31,16,49,4.80
2021,01,31,16,51,4.80
2021,01,31,16,52,4.80
2021,01,31,16,54,4.80
2021,01,31,16,56,4.80
2021,01,31,16,57,4.80
2021,01,31,16,58,4.80
2021,01,31,17,00,4.70
2021,01,31,17,02,4.70
2021,01,31,17,03,4.70
2021,01,31,17,04,4.70
2021,01,31,17,06,4.70
2021,01,31,17,08,4.70
2021,01,31,17,10,4.70
2021,01,31,17,11,4.70
2021,01,31,17,13,4.60
2021,01,31,17,15,4.60
2021,01,31,17,16,4.60
2021,01,31,17,17,4.60
2021,01,31,17,18,4.60
2021,01,31,17,20,4.60
2021,01,31,17,21,4.60
2021,01,31,17,22,4.60
2021,01,31,17,23,4.60
2021,01,31,17,25,4.60
2021,01,31,17,26,4.60
2021,01,31,17,27,4.60
2021,01,31,17,28,4.60
2021,01,31,17,30,4.60
2021,01,31,17,31,4.60
2021,01,31,17,32,4.50
2021,01,31,17,34,4.60
2021,01,31,17,35,4.60
2021,01,31,17,37,4.50
2021,01,31,17,38,4.50
2021,01,31,17,39,4.50
2021,01,31,17,41,4.50
2021,01,31,17,42,4.50
2021,01,31,17,43,4.50
2021,01,31,17,45,4.50
2021,01,31,17,46,4.50
2021,01,31,17,47,4.50
2021,01,31,17,48,4.50
2021,01,31,17,50,4.50
2021,01,31,17,51,4.50
2021,01,31,17,52,4.50
2021,01,31,17,54,4.50
2021,01,31,17,55,4.40
2021,01,31,17,56,4.40
2021,01,31,17,57,4.40
2021,01,31,17,58,4.40
2021,01,31,17,59,4.40
2021,01,31,18,00,4.40
2021,01,31,18,01,4.40
2021,01,31,18,02,4.40
2021,01,31,18,06,4.30
2021,01,31,18,07,4.30
2021,01,31,18,08,4.30
2021,01,31,18,09,4.30
2021,01,31,18,10,4.30
2021,01,31,18,11,4.30
2021,01,31,18,12,4.30
2021,01,31,18,13,4.30
2021,01,31,18,15,4.30
2021,01,31,18,16,4.30
2021,01,31,18,18,4.30
2021,01,31,18,19,4.30
2021,01,31,18,21,4.30
2021,01,31,18,22,4.30
2021,01,31,18,23,4.30
2021,01,31,18,25,4.30
2021,01,31,18,26,4.30
2021,01,31,18,27,4.30
2021,01,31,18,28,4.30
2021,01,31,18,29,4.30
2021,01,31,18,30,4.30
2021,01,31,18,31,4.30
2021,01,31,18,33,4.30
2021,01,31,18,34,4.30
2021,01,31,18,35,4.30
2021,01,31,18,36,4.30
2021,01,31,18,37,4.20
2021,01,31,18,38,4.30
2021,01,31,18,39,4.30
2021,01,31,18,40,4.20
2021,01,31,18,41,4.20
2021,01,31,18,42,4.20
2021,01,31,18,43,4.20
2021,01,31,18,44,4.20
2021,01,31,18,45,4.20
2021,01,31,18,46,4.20
2021,01,31,18,47,4.20
2021,01,31,18,48,4.20
2021,01,31,18,49,4.20
2021,01,31,18,50,4.20
2021,01,31,18,51,4.20
2021,01,31,18,52,4.20
2021,01,31,18,53,4.20
2021,01,31,18,54,4.20
2021,01,31,18,55,4.20
2021,01,31,18,56,4.20
2021,01,31,18,57,4.20
2021,01,31,18,58,4.20
2021,01,31,18,59,4.20
2021,01,31,19,00,4.20
2021,01,31,19,01,4.20
2021,01,31,19,02,4.20
2021,01,31,19,03,4.20
2021,01,31,19,04,4.20
2021,01,31,19,05,4.20
2021,01,31,19,06,4.20
2021,01,31,19,07,4.20
2021,01,31,19,08,4.20
2021,01,31,19,09,4.20
2021,01,31,19,10,4.20
2021,01,31,19,11,4.20
2021,01,31,19,12,4.20
2021,01,31,19,13,4.20
2021,01,31,19,14,4.10
2021,01,31,19,15,4.10
2021,01,31,19,16,4.10
2021,01,31,19,17,4.10
2021,01,31,19,19,4.10
2021,01,31,19,20,4.10
2021,01,31,19,21,4.10
2021,01,31,19,22,4.10
2021,01,31,19,23,4.10
2021,01,31,19,24,4.10
2021,01,31,19,25,4.10
2021,01,31,19,26,4.10
2021,01,31,19,27,4.10
2021,01,31,19,28,4.10
2021,01,31,19,29,4.10
2021,01,31,19,30,4.10
2021,01,31,19,31,4.10
2021,01,31,19,32,4.10
2021,01,31,19,33,4.10
2021,01,31,19,34,4.00
2021,01,31,19,35,4.00
2021,01,31,19,36,4.00
2021,01,31,19,37,4.00
2021,01,31,19,38,4.00
2021,01,31,19,39,4.00
2021,01,31,19,40,3.90
2021,01,31,19,41,3.90
2021,01,31,19,42,3.90
2021,01,31,19,43,3.90
2021,01,31,19,44,3.90
2021,01,31,19,45,3.90
2021,01,31,19,46,3.90
2021,01,31,19,47,3.90
2021,01,31,19,48,3.90
2021,01,31,19,49,3.90
2021,01,31,19,50,3.90
2021,01,31,19,51,3.90
2021,01,31,19,52,3.90
2021,01,31,19,53,3.90
2021,01,31,19,54,3.90
2021,01,31,19,55,3.90
2021,01,31,19,56,3.90